Location: Edinburgh
(55.9500°N, 3.1600°W)
Time: 09:50:20
(UTC+01:00)

Vanguard 2 - Visible Passes

Search period start: 20 October 2017 00:00
Search period end: 29 October 2017 23:00
Orbit: 554 x 2939 km, 32.9° (Epoch: 19 October)

Date Brightness Start Highest point End Pass type
(mag) Time Alt. Az. Time Alt. Az. Time Alt. Az.
23 Oct 12.1 06:41:04 10° SSE 06:43:56 11° SSE 06:46:40 10° SE visible
24 Oct 12.0 06:54:14 10° S 07:01:26 14° SSE 07:07:47 10° SE visible
25 Oct 11.9 07:09:32 10° SSW 07:18:58 18° SSE 07:26:56 10° ESE visible
26 Oct 12.1 05:25:11 10° SSE 05:27:59 11° SE 05:30:41 10° SE visible
26 Oct 11.8 07:25:38 10° SSW 07:36:31 21° SSE 07:45:29 10° ESE visible
27 Oct 11.9 05:37:41 10° S 05:45:21 15° SSE 05:52:24 10° ESE visible
28 Oct 11.8 05:52:44 10° S 06:02:45 18° SSE 06:11:47 10° ESE visible
29 Oct 11.7 05:08:39 10° SSW 05:20:11 22° SSE 05:30:27 10° ESE visible
